Change the Weather History Date:

Saturday, February 2, 2013

  Actual Average Record
Temperature  
Mean Temperature 67 °F -  
Max Temperature 75 °F 74 °F 80 °F (2001)
Min Temperature 58 °F 61 °F 57 °F (1998)
Cooling Degree Days 2    
Growing Degree Days 17 (Base 50)    
Moisture  
Dew Point 59 °F    
Average Humidity 72    
Maximum Humidity 90    
Minimum Humidity 56    
Precipitation  
Precipitation 0.00 in - - ()
Sea Level Pressure  
Sea Level Pressure 30.09 in    
Wind  
Wind Speed 5 mph (East)    
Max Wind Speed 16 mph    
Max Gust Speed 22 mph    
Visibility 10 miles    
Events      
Averages and records for this station are not official NWS values.
T = Trace of Precipitation, MM = Missing Value Source: NWS Daily Summary

Daily Weather History Graph

Daily Weather History Graph

Search for Another Location

Airport or City:

Trip Planner

Search our weather history database for the weather conditions in past years. The results will help you decide how hot, cold, wet, or windy it might be!

Date:

Astronomy

Feb. 02, 2013 Rise Set
Actual Time 7:09 AM HST 6:23 PM HST
Civil Twilight 6:46 AM HST 6:46 PM HST
Nautical Twilight 6:19 AM HST 7:12 PM HST
Astronomical Twilight 5:52 AM HST 7:39 PM HST
Moon No Moon Rise 11:25 AM HST
Length of Visible Light 12h 00m
Length of Day
11h 13m
Waning Gibbous, 57% of the Moon is Illuminated
Feb 2
Waning Gibbous
Feb 3
Last Quarter
Feb 9
New
Feb 17
First Quarter
Feb 25
Full

Hourly Weather History & Observations

Time (HST) Temp. Dew Point Humidity Pressure Visibility Wind Dir Wind Speed Gust Speed Precip Events Conditions
12:55 AM 67.8 °F 58.5 °F 72% 30.06 in 10.0 mi Variable 3.5 mph - N/A   Clear
1:55 AM 68.2 °F 59.2 °F 73% 30.06 in 10.0 mi East 8.1 mph - N/A   Clear
2:55 AM 68.0 °F 58.5 °F 71% 30.04 in 10.0 mi East 5.8 mph - N/A   Clear
3:55 AM 67.6 °F 58.5 °F 72% 30.05 in 10.0 mi Calm Calm - N/A   Partly Cloudy
4:25 AM 66.2 °F 59.0 °F 78% 30.06 in 10.0 mi Calm Calm - N/A   Mostly Cloudy
4:28 AM 66.2 °F 59.0 °F 78% 30.06 in 10.0 mi Calm Calm - N/A   Mostly Cloudy
4:30 AM 66.2 °F 59.0 °F 78% 30.06 in 10.0 mi Calm Calm - N/A   Mostly Cloudy
4:34 AM 66.2 °F 59.0 °F 78% 30.06 in 10.0 mi Calm Calm - N/A   Mostly Cloudy
4:41 AM 66.2 °F 57.2 °F 73% 30.06 in 10.0 mi Calm Calm - N/A   Mostly Cloudy
4:49 AM 66.2 °F 59.0 °F 78% 30.06 in 10.0 mi Calm Calm - N/A   Mostly Cloudy
4:52 AM 66.2 °F 59.0 °F 78% 30.06 in 10.0 mi SW 3.5 mph - N/A   Mostly Cloudy
4:55 AM 66.0 °F 57.9 °F 75% 30.06 in 10.0 mi Calm Calm - N/A   Scattered Clouds
5:55 AM 66.9 °F 59.2 °F 76% 30.07 in 10.0 mi East 5.8 mph - N/A   Partly Cloudy
7:55 AM 63.3 °F 58.5 °F 84% 30.12 in 10.0 mi Calm Calm - N/A   Clear
8:55 AM 70.5 °F 61.0 °F 72% 30.12 in 10.0 mi ESE 8.1 mph - N/A   Clear
9:55 AM 72.1 °F 56.7 °F 58% 30.13 in 10.0 mi East 15.0 mph 21.9 mph N/A   Clear
10:55 AM 72.9 °F 59.4 °F 62% 30.14 in 10.0 mi East 12.7 mph - N/A   Clear
11:02 AM 72.9 °F 59.4 °F 62% 30.17 in 10.0 mi East 12.7 mph - N/A   Clear
11:55 AM 74.1 °F 59.2 °F 59% 30.12 in 10.0 mi East 13.8 mph - N/A   Scattered Clouds
12:55 PM 74.5 °F 58.8 °F 58% 30.10 in 10.0 mi East 15.0 mph - N/A   Mostly Cloudy
1:55 PM 75.7 °F 58.8 °F 56% 30.07 in 10.0 mi East 11.5 mph - N/A   Clear
2:55 PM 75.7 °F 59.4 °F 57% 30.06 in 10.0 mi East 16.1 mph 20.7 mph N/A   Clear
3:55 PM 74.7 °F 59.9 °F 60% 30.06 in 10.0 mi ENE 12.7 mph - N/A   Clear
4:55 PM 73.6 °F 59.7 °F 62% 30.07 in 10.0 mi East 9.2 mph - N/A   Clear
5:55 PM 70.7 °F 59.4 °F 67% 30.08 in 10.0 mi East 9.2 mph - N/A   Clear
6:55 PM 68.0 °F 58.6 °F 72% 30.10 in 10.0 mi ENE 4.6 mph - N/A   Clear
7:55 PM 66.2 °F 57.9 °F 75% 30.12 in 10.0 mi SW 3.5 mph - N/A   Clear
8:55 PM 63.1 °F 57.0 °F 80% 30.13 in 10.0 mi West 3.5 mph - N/A   Clear
9:55 PM 61.7 °F 57.2 °F 85% 30.13 in 10.0 mi West 3.5 mph - N/A   Clear
10:55 PM 59.7 °F 55.9 °F 87% 30.13 in 10.0 mi West 4.6 mph - N/A   Clear
11:55 PM 58.6 °F 55.6 °F 90% 30.12 in 10.0 mi West 4.6 mph - N/A   Clear